Content
SEND FEEDBACK

Daily
Averages
Monthly
Summary
United States of America

ST. LOUIS - MEMORIAL PLAZA, MISSOURI


Home > North America > United States > Missouri
Elevation: 620 feet     Latitude: 38 38N     Longitude: 090 12W

WEATHER
 
SELECT A DAY
Number of Records: 189,140;   Date Range: 1/1/95 - 10/23/14
 
SHARE

PRINT THIS DATA

[ ← Previous Day ]
WEATHER ALMANAC - FEBRUARY 19, 2013
[ Next Day → ]
[ °C ]   °F
Weather ElementAverageHighLow
Temperature30 °F35.1 °F (2:53 pm)25 °F (11:53 pm)
Dewpoint14.7 °F21.9 °F (12:53 am)9 °F (10:53 pm)
Humidity53.7 %64 % (12:53 am)42 % (4:53 pm)
Barometer30.14 in30.32 in (9:53 pm)29.95 in (12:53 am)
Wind Speed14.3 mph20.7 mph (9:53 am)
Wind Gust27.6 mph (9:53 am)
Weather ElementAverage
Visibility10 mi
Wind DirectionWNW (293.2 °)

Weather ElementTotal
Precipitation---
Heating Degree Days35 (Base 65)
Averaged from 22 records on February 19, 2013
WEATHER CONDITIONS BREAKOUT
WIND DIRECTION BREAKOUT
WEATHER BY HOUR - FEBRUARY 19, 2013
[ °C ]   °F
Local TimeTemperatureDewpointHumidityBarometerVisibilityWind DirectionWind SpeedGust SpeedPrecipitationEventsConditions
12:53 AM33.1 °F21.9 °F64 %29.95 in10.0 miWNW (290°)15.0 mph20.7 mphMostly Cloudy
1:53 AM32.0 °F21.0 °F64 %29.96 in10.0 miWest (280°)13.8 mph20.7 mphScattered Clouds
2:53 AM30.9 °F19.9 °F64 %29.98 in10.0 miWest (270°)13.8 mph23.0 mphClear
3:53 AM30.0 °F18.0 °F61 %29.99 in10.0 miWest (270°)17.3 mph24.2 mphPartly Cloudy
4:53 AM28.9 °F18.0 °F64 %30.01 in10.0 miWest (260°)11.5 mphClear
5:53 AM28.0 °F16.0 °F61 %30.03 in10.0 miWest (280°)8.1 mphClear
6:53 AM27.0 °F14.0 °F58 %30.06 in10.0 miWest (270°)12.7 mph23.0 mphScattered Clouds
7:53 AM27.0 °F14.0 °F58 %30.09 in10.0 miWNW (290°)15.0 mphScattered Clouds
8:53 AM28.0 °F14.0 °F56 %30.11 in10.0 miWNW (290°)18.4 mph25.3 mphPartly Cloudy
9:53 AM30.0 °F15.1 °F54 %30.13 in10.0 miWNW (300°)20.7 mph27.6 mphPartly Cloudy
10:53 AM32.0 °F15.1 °F50 %30.15 in10.0 miWest (280°)13.8 mph25.3 mphScattered Clouds
12:53 PM34.0 °F15.1 °F46 %30.17 in10.0 miWNW (290°)17.3 mph23.0 mphPartly Cloudy
1:53 PM34.0 °F14.0 °F44 %30.18 in10.0 miWNW (290°)16.1 mph26.5 mphPartly Cloudy
2:53 PM35.1 °F15.1 °F44 %30.18 in10.0 miWNW (300°)16.1 mph23.0 mphClear
3:53 PM35.1 °F15.1 °F44 %30.20 in10.0 miNW (310°)18.4 mph23.0 mphClear
4:53 PM34.0 °F12.9 °F42 %30.22 in10.0 miNW (310°)18.4 mph25.3 mphClear
6:53 PM28.9 °F12.0 °F49 %30.25 in10.0 miNW (320°)12.7 mphClear
7:53 PM27.0 °F12.0 °F53 %30.27 in10.0 miNW (320°)9.2 mphClear
8:53 PM27.0 °F12.0 °F53 %30.29 in10.0 miNW (320°)12.7 mphClear
9:53 PM26.1 °F10.9 °F53 %30.32 in10.0 miWNW (300°)12.7 mphClear
10:53 PM26.1 °F9.0 °F49 %30.32 in10.0 miNW (310°)11.5 mph19.6 mphClear
11:53 PM25.0 °F9.0 °F51 %30.32 in10.0 miWNW (300°)10.4 mphClear
Hourly data recorded from KCPS, located miles away from St. Louis - Memorial Plaza, Missouri







STORIES FROM OUR PARTNERS